FW3877 Weather Reports


Display with metric or nautical units.
time (UTC)temp
F
wind
direction
speed
MPH
gust
MPH
rain 1hr
in
rain 24hr
in
rain mn
in
humidity
%
barometer
mb
20260506005204 40 31 0.0 1.0 0.00 0.02 0.00 80 1017.1
20260506004204 41 31 0.0 0.0 0.00 0.02 0.00 80 1017.3
20260506003703 41 32 0.0 1.0 0.00 0.02 0.00 80 1017.2
20260506003204 41 31 1.0 2.0 0.00 0.02 0.00 80 1017.4
20260506002703 41 31 0.0 1.0 0.00 0.02 0.00 80 1017.4
20260506002204 41 32 1.0 2.0 0.00 0.02 0.00 80 1017.4
20260506001704 41 14 1.0 3.0 0.00 0.02 0.00 80 1017.5
20260506001204 41 17 1.0 2.0 0.00 0.02 0.00 80 1017.4
20260506000205 42 5 0.0 1.0 0.00 0.02 0.00 80 1017.5
20260505235203 42 342 1.0 2.0 0.00 0.02 0.00 79 1017.4
20260505234703 42 342 0.0 1.0 0.00 0.02 0.00 79 1017.3
20260505234204 42 351 1.0 2.0 0.00 0.02 0.00 79 1017.3
20260505233704 43 20 0.0 1.0 0.00 0.02 0.00 79 1017.2
20260505233203 43 20 0.0 3.0 0.00 0.02 0.00 79 1017.2
20260505232703 43 45 2.0 6.0 0.00 0.02 0.00 78 1017.2
20260505231704 43 50 2.0 5.0 0.00 0.02 0.00 78 1017.3
20260505231204 43 69 3.0 5.0 0.00 0.02 0.00 78 1017.3
20260505230703 43 67 2.0 8.0 0.00 0.02 0.00 78 1017.5
20260505230203 43 69 5.0 7.0 0.00 0.02 0.00 78 1017.4
20260505225704 43 80 4.0 8.0 0.00 0.02 0.08 78 1017.5
20260505225204 43 68 4.0 8.0 0.00 0.02 0.08 78 1017.6
20260505224204 43 67 3.0 6.0 0.00 0.02 0.08 77 1017.6
20260505223703 43 64 5.0 9.0 0.00 0.02 0.08 78 1017.6
20260505223203 43 65 3.0 8.0 0.00 0.02 0.08 78 1017.6
20260505222704 43 52 3.0 8.0 0.00 0.02 0.08 78 1017.6
20260505222204 43 50 2.0 3.0 0.00 0.02 0.08 78 1017.5
20260505221703 43 25 2.0 5.0 0.00 0.02 0.08 79 1017.6
20260505221203 42 35 2.0 3.0 0.00 0.02 0.08 79 1017.6
20260505220204 42 58 1.0 3.0 0.00 0.02 0.08 79 1017.6
20260505215703 42 64 1.0 2.0 0.00 0.02 0.08 79 1017.6
20260505214203 43 57 1.0 2.0 0.00 0.02 0.08 80 1017.6
20260505213703 43 55 2.0 3.0 0.00 0.02 0.08 80 1017.6
20260505213203 43 31 1.0 2.0 0.00 0.02 0.08 81 1017.5
20260505212704 43 19 2.0 3.0 0.00 0.02 0.08 81 1017.5
20260505212204 43 350 2.0 3.0 0.00 0.02 0.08 81 1017.5
20260505211703 43 8 2.0 3.0 0.00 0.02 0.08 81 1017.4
20260505211203 43 25 1.0 3.0 0.00 0.02 0.08 81 1017.5
20260505210704 43 11 2.0 3.0 0.00 0.02 0.08 81 1017.4
20260505210204 43 28 2.0 3.0 0.00 0.02 0.08 82 1017.3
20260505205703 44 14 3.0 3.0 0.00 0.02 0.08 82 1017.3
20260505205203 44 11 2.0 3.0 0.00 0.02 0.08 81 1017.2
20260505204703 44 23 3.0 3.0 0.00 0.02 0.08 81 1017.4
20260505203204 45 22 2.0 3.0 0.00 0.02 0.08 81 1017.4
20260505202703 45 5 2.0 3.0 0.00 0.02 0.08 81 1017.4
20260505202203 45 17 1.0 3.0 0.00 0.02 0.08 80 1017.4
20260505201703 45 16 2.0 3.0 0.00 0.02 0.08 80 1017.3
20260505201203 46 21 3.0 3.0 0.00 0.02 0.08 80 1017.2
20260505200703 46 17 3.0 3.0 0.00 0.02 0.08 80 1017.3
20260505200203 46 18 2.0 3.0 0.00 0.02 0.08 80 1017.3
20260505195703 46 21 3.0 5.0 0.00 0.02 0.08 80 1017.4
20260505194704 47 26 3.0 6.0 0.00 0.02 0.08 79 1017.6
20260505194204 47 16 4.0 7.0 0.00 0.02 0.08 79 1017.6
20260505193703 48 15 3.0 8.0 0.00 0.02 0.08 79 1017.6
20260505193203 48 20 4.0 7.0 0.00 0.02 0.08 78 1017.5
20260505192704 48 21 5.0 7.0 0.00 0.02 0.08 78 1017.5
20260505191704 49 3 5.0 12.0 0.00 0.02 0.08 78 1017.4
20260505191203 49 2 6.0 9.0 0.00 0.02 0.08 78 1017.4
20260505190204 49 23 6.0 10.0 0.00 0.02 0.08 77 1017.4
20260505185703 49 16 6.0 10.0 0.00 0.02 0.08 77 1017.4
20260505185203 49 18 6.0 12.0 0.00 0.02 0.08 77 1017.4
20260505184703 49 20 6.0 10.0 0.00 0.02 0.08 77 1017.4
20260505184203 49 11 6.0 9.0 0.00 0.02 0.08 77 1017.4
20260505183703 49 6 3.0 8.0 0.00 0.02 0.08 77 1017.4
20260505183203 49 12 4.0 9.0 0.00 0.02 0.08 77 1017.5
20260505182703 49 17 6.0 10.0 0.00 0.02 0.08 77 1017.5
20260505182204 49 19 5.0 8.0 0.00 0.02 0.08 76 1017.4
20260505181204 50 20 6.0 10.0 0.00 0.02 0.08 76 1017.5
20260505180703 49 7 6.0 12.0 0.00 0.02 0.08 76 1017.4
20260505180203 49 17 4.0 12.0 0.00 0.02 0.08 76 1017.3
20260505175703 49 5 3.0 8.0 0.00 0.02 0.08 76 1017.4
20260505175203 49 7 5.0 12.0 0.00 0.02 0.08 76 1017.4
20260505174704 49 25 6.0 10.0 0.00 0.02 0.08 76 1017.4
20260505174204 50 18 7.0 12.0 0.00 0.02 0.08 76 1017.5
20260505173703 50 353 6.0 12.0 0.00 0.02 0.08 76 1017.4
20260505173204 50 15 6.0 12.0 0.00 0.02 0.08 75 1017.4
20260505172703 50 34 7.0 12.0 0.00 0.02 0.08 74 1017.4
20260505172203 50 15 7.0 12.0 0.00 0.02 0.08 74 1017.5
20260505171703 51 11 8.0 12.0 0.00 0.02 0.08 74 1017.4
20260505170204 52 28 5.0 10.0 0.00 0.02 0.08 71 1017.3
20260505165203 53 7 5.0 9.0 0.00 0.02 0.08 73 1017.4
20260505164704 53 359 5.0 9.0 0.00 0.02 0.08 71 1017.3
20260505164203 53 336 6.0 9.0 0.00 0.02 0.08 71 1017.4
20260505163704 53 29 4.0 12.0 0.00 0.02 0.08 71 1017.4
20260505162704 53 347 6.0 10.0 0.00 0.02 0.08 72 1017.4
20260505161703 52 19 7.0 12.0 0.00 0.02 0.08 73 1017.4
20260505161203 52 11 7.0 10.0 0.00 0.02 0.08 72 1017.5
20260505160704 52 350 6.0 12.0 0.00 0.02 0.08 75 1017.6
20260505153204 51 13 5.0 10.0 0.00 0.02 0.08 73 1017.7
20260505152704 53 8 4.0 9.0 0.00 0.02 0.08 73 1017.6
20260505152203 52 336 5.0 9.0 0.00 0.02 0.08 72 1017.5
20260505151204 52 355 5.0 9.0 0.00 0.02 0.08 71 1017.5
20260505150704 51 10 5.0 10.0 0.00 0.02 0.08 72 1017.5
20260505150204 51 337 3.0 12.0 0.00 0.02 0.08 71 1017.6
20260505140204 52 29 7.0 12.0 0.00 0.02 0.08 70 1017.8
20260505130204 52 313 4.0 9.0 0.00 0.02 0.08 75 1017.6
20260505124704 52 7 3.0 9.0 0.00 0.02 0.08 76 1017.7
20260505123204 52 6 7.0 13.0 0.00 0.02 0.08 75 1017.6
20260505122704 52 5 5.0 10.0 0.00 0.02 0.08 74 1017.6
20260505121703 52 331 3.0 8.0 0.00 0.02 0.08 76 1017.6
20260505120704 53 6 2.0 8.0 0.00 0.02 0.08 77 1017.6
20260505120204 52 21 3.0 8.0 0.00 0.02 0.08 77 1017.7
20260505115703 53 359 5.0 12.0 0.00 0.02 0.08 78 1017.8
20260505115203 52 11 6.0 9.0 0.00 0.02 0.08 78 1017.7
20260505114703 51 24 6.0 13.0 0.00 0.02 0.08 78 1017.7
20260505114203 51 351 5.0 10.0 0.00 0.02 0.08 79 1017.7
20260505113703 51 343 6.0 12.0 0.00 0.02 0.08 78 1017.7
20260505112704 50 26 6.0 12.0 0.00 0.02 0.08 79 1017.7
20260505112204 51 19 3.0 8.0 0.00 0.02 0.08 80 1017.7
20260505111704 51 355 6.0 9.0 0.00 0.02 0.08 80 1017.7
20260505111203 51 320 5.0 10.0 0.00 0.02 0.08 80 1017.8
20260505110703 51 24 9.0 12.0 0.00 0.02 0.08 80 1017.8
20260505110204 52 7 5.0 9.0 0.00 0.02 0.08 82 1017.7
20260505102204 49 5 6.0 13.0 0.00 0.02 0.08 86 1017.7
20260505101704 49 17 5.0 12.0 0.00 0.02 0.08 86 1017.7
20260505100704 50 32 7.0 12.0 0.00 0.02 0.08 87 1017.8
20260505100203 49 14 6.0 14.0 0.00 0.02 0.08 87 1017.9
20260505095704 49 20 6.0 12.0 0.00 0.02 0.08 87 1017.8